Change the Weather History Date:

Monday, July 8, 2013

  Actual Average Record
Temperature  
Mean Temperature 80 °F -  
Max Temperature 85 °F 88 °F 96 °F (2001)
Min Temperature 74 °F 78 °F 73 °F (2012)
Cooling Degree Days 14    
Growing Degree Days 30 (Base 50)    
Moisture  
Dew Point 74 °F    
Average Humidity 85    
Maximum Humidity 95    
Minimum Humidity 70    
Precipitation  
Precipitation 0.28 in 0.37 in - ()
Sea Level Pressure  
Sea Level Pressure 29.83 in    
Wind  
Wind Speed 2 mph ()    
Max Wind Speed 12 mph    
Max Gust Speed -    
Visibility 5.0 miles    
Events Rain    
Averages and records for this station are not official NWS values.
T = Trace of Precipitation, MM = Missing Value Source: Averaged Metar Reports

Daily Weather History Graph

Daily Weather History Graph

Search for Another Location

Airport or City:

Trip Planner

Search our weather history database for the weather conditions in past years. The results will help you decide how hot, cold, wet, or windy it might be!

Date:

Astronomy

Jul. 08, 2013 Rise Set
Actual Time 6:14 AM ICT 6:48 PM ICT
Civil Twilight 5:51 AM ICT 7:11 PM ICT
Nautical Twilight 5:25 AM ICT 7:38 PM ICT
Astronomical Twilight 4:58 AM ICT 8:05 PM ICT
Moon 6:03 AM ICT (7/8) 6:47 PM ICT (7/8)
Length of Visible Light 13h 19m
Length of Day
12h 34m
Waning Crescent, 0% of the Moon is Illuminated
Jul 8
Waning Crescent
Jul 8
New
Jul 16
First Quarter
Jul 23
Full
Jul 30
Last Quarter

Hourly Weather History & Observations

Time (ICT) Temp. Heat Index Dew Point Humidity Pressure Visibility Wind Dir Wind Speed Gust Speed Precip Events Conditions
12:00 AM 77.0 °F - 75.2 °F 94% 29.86 in 5.6 mi Calm Calm - N/A   Mostly Cloudy
12:30 AM 77.0 °F - 75.2 °F 94% 29.83 in 5.6 mi Calm Calm - N/A   Mostly Cloudy
1:00 AM 78 °F - 77 °F 94% 29.78 in 6 mi Calm Calm - -   Scattered Clouds
1:00 AM 77.0 °F - 75.2 °F 94% 29.83 in 5.6 mi Calm Calm - N/A   Mostly Cloudy
1:30 AM 77.0 °F - 73.4 °F 89% 29.83 in 5.6 mi Calm Calm - N/A   Mostly Cloudy
2:00 AM 77.0 °F - 73.4 °F 89% 29.83 in 5.0 mi Calm Calm - N/A   Mostly Cloudy
2:30 AM 75.2 °F - 71.6 °F 89% 29.83 in 4.3 mi WNW 8.1 mph - N/A Rain Rain
3:00 AM 75.2 °F - 71.6 °F 89% 29.83 in - North - - N/A   Mostly Cloudy
3:30 AM 75.2 °F - 73.4 °F 94% 29.80 in 5.0 mi Calm Calm - N/A   Mostly Cloudy
4:00 AM 75.2 °F - 73.4 °F 94% 29.80 in 5.0 mi Calm Calm - N/A   Mostly Cloudy
5:00 AM 75.2 °F - 73.4 °F 94% 29.80 in 5.6 mi Calm Calm - N/A   Mostly Cloudy
6:00 AM 77.0 °F - 73.4 °F 89% 29.80 in 5.6 mi WSW 5.8 mph - N/A   Mostly Cloudy
6:30 AM 77.0 °F - 73.4 °F 89% 29.83 in 6.2 mi Calm Calm - N/A   Mostly Cloudy
7:00 AM 77 °F - 76 °F 95% 29.79 in 6 mi Calm Calm - -   Scattered Clouds
7:00 AM 77.0 °F - 73.4 °F 89% 29.83 in 6.2 mi Calm Calm - N/A   Mostly Cloudy
7:30 AM 77.0 °F - 73.4 °F 89% 29.83 in 6.2 mi Calm Calm - N/A   Mostly Cloudy
8:00 AM 78.8 °F - 75.2 °F 89% 29.83 in 6.2 mi Calm Calm - N/A   Mostly Cloudy
8:30 AM 82.4 °F 90.9 °F 77.0 °F 84% 29.86 in 5.0 mi Calm Calm - N/A   Mostly Cloudy
9:00 AM 82.4 °F 89.5 °F 75.2 °F 79% 29.86 in 5.0 mi Calm Calm - N/A   Mostly Cloudy
9:30 AM 84.2 °F 92.3 °F 75.2 °F 74% 29.86 in 5.0 mi Variable 4.6 mph - N/A   Mostly Cloudy
10:00 AM 84.2 °F 92.3 °F 75.2 °F 74% 29.89 in 4.3 mi Variable 2.3 mph - N/A   Mostly Cloudy
10:30 AM 82.4 °F 88.2 °F 73.4 °F 74% 29.89 in 4.3 mi West 11.5 mph - N/A   Mostly Cloudy
11:00 AM 84.2 °F 92.3 °F 75.2 °F 74% 29.86 in 5.0 mi WSW 6.9 mph - N/A   Mostly Cloudy
11:30 AM 84.2 °F 90.9 °F 73.4 °F 70% 29.86 in 5.0 mi WSW 5.8 mph - N/A   Mostly Cloudy
12:00 PM 84.2 °F 90.9 °F 73.4 °F 70% 29.86 in 5.0 mi SW 5.8 mph - N/A   Mostly Cloudy
12:30 PM 84.2 °F 90.9 °F 73.4 °F 70% 29.86 in 5.0 mi WSW 4.6 mph - N/A   Mostly Cloudy
1:00 PM 85 °F - 79 °F 78% 29.81 in 6 mi WSW 3.5 mph - -   Mist
1:00 PM 84.2 °F 90.9 °F 73.4 °F 70% 29.83 in 5.0 mi WSW 5.8 mph - N/A   Mostly Cloudy
1:30 PM 84.2 °F 92.3 °F 75.2 °F 74% 29.83 in 5.0 mi WSW 5.8 mph - N/A   Mostly Cloudy
2:00 PM 80.6 °F 86.2 °F 75.2 °F 84% 29.83 in 0.9 mi West 6.9 mph - N/A Rain Heavy Rain
2:30 PM 78.8 °F - 71.6 °F 78% 29.80 in 4.3 mi WNW 5.8 mph - N/A   Mostly Cloudy
3:00 PM 80.6 °F 85.4 °F 73.4 °F 79% 29.80 in 5.0 mi West 5.8 mph - N/A   Mostly Cloudy
3:30 PM 80.6 °F 85.4 °F 73.4 °F 79% 29.80 in 5.0 mi Variable 3.5 mph - N/A   Mostly Cloudy
4:00 PM 80.6 °F 85.4 °F 73.4 °F 79% 29.80 in 5.0 mi Calm Calm - N/A   Mostly Cloudy
4:30 PM 80.6 °F 86.2 °F 75.2 °F 84% 29.80 in 5.0 mi Variable 2.3 mph - N/A   Mostly Cloudy
5:00 PM 78.8 °F - 75.2 °F 89% 29.80 in 5.0 mi Calm Calm - N/A   Mostly Cloudy
5:30 PM 78.8 °F - 75.2 °F 89% 29.80 in 4.3 mi Variable 2.3 mph - N/A   Mostly Cloudy
6:00 PM 78.8 °F - 75.2 °F 89% 29.80 in 4.3 mi Variable 2.3 mph - N/A   Mostly Cloudy
6:30 PM 78.8 °F - 75.2 °F 89% 29.80 in 5.0 mi Variable 2.3 mph - N/A   Mostly Cloudy
7:00 PM 82 °F - 77 °F 82% 29.77 in 6 mi Calm Calm - -   Mist
7:00 PM 78.8 °F - 73.4 °F 83% 29.80 in 5.0 mi Calm Calm - N/A   Mostly Cloudy
7:30 PM 77.0 °F - 73.4 °F 89% 29.80 in 5.0 mi Calm Calm - N/A   Mostly Cloudy
8:00 PM 77.0 °F - 73.4 °F 89% 29.83 in 5.0 mi Calm Calm - N/A   Mostly Cloudy
8:30 PM 77.0 °F - 75.2 °F 94% 29.83 in 5.0 mi Calm Calm - N/A   Mostly Cloudy
9:00 PM 77.0 °F - 73.4 °F 89% 29.83 in 5.0 mi Calm Calm - N/A   Mostly Cloudy
9:30 PM 77.0 °F - 73.4 °F 89% 29.86 in 5.0 mi Calm Calm - N/A   Mostly Cloudy
10:00 PM 77.0 °F - 75.2 °F 94% 29.86 in 3.1 mi Variable 1.2 mph - N/A Rain Rain
10:30 PM 78.8 °F - 73.4 °F 83% 29.86 in 5.0 mi WSW 9.2 mph - N/A   Mostly Cloudy
11:00 PM 80.6 °F 85.4 °F 73.4 °F 79% 29.86 in 5.0 mi Variable 4.6 mph - N/A   Mostly Cloudy
11:30 PM 78.8 °F - 73.4 °F 83% 29.86 in 5.0 mi Variable 3.5 mph - N/A   Mostly Cloudy